Location: Paddlesworth
(51.1000°N, 1.1333°E)
Time: 09:19:25
(UTC+00:00)

DNEPR-1 R/B - Pass Details

Date: 11 May 2021
Orbit: 587 x 1334 km, 64.6° (Epoch: 15 June)

Event Time Altitude Azimuth Distance (km) Brightness Sun altitude
Exits shadow 22:34:44 33° 174° (S) 1,377 4.8 -18.7°
Maximum altitude 22:36:45 47° 124° (SE) 1,041 4.3 -18.8°
Drops below altitude 10° 22:41:31 10° 51° (NE) 2,184 6.6 -19.1°
Sets 22:43:43 0° 46° (NE) 3,025 7.5 -19.2°
